Regional Weather Roundup
Issued by NWS

Home | Current Version | Previous Version | Graphics & Text | Print | Product List | Glossary On
Versions: 1 2 3 4 5 6 7 8 9 10 11 12 13 14 15 16 17 18 19 20 21 22 23 24 25 26 27 28 29 30 31 32 33 34 35 36 37 38 39 40 41 42 43 44 45 46 47 48 49 50
352
ASUS43 KLOT 141908
RWRIL

ILLINOIS REGIONAL WEATHER ROUNDUP
NATIONAL WEATHER SERVICE CHICAGO/ROMEOVILLE IL
100 PM CST SUN FEB 14 2016

NOTE: "FAIR" INDICATES FEW OR NO CLOUDS BELOW 12,000 FEET WITH NO
SIGNIFICANT WEATHER AND/OR OBSTRUCTIONS TO VISIBILITY.

* THESE STATIONS ARE NOT UNDER NWS QUALITY CONTROL. THEY ALSO MAY NOT
  REPORT WEATHER SUCH AS PRECIPITATION OR FOG.

ILZ001-002-007-009-015-016-024-142000-
NORTHWEST ILLINOIS

CITY           SKY/WX    TMP DP  RH WIND       PRES   REMARKS
MOLINE         SNOW      19  14  81 SE12      30.06F VSB 1/2 WCI   7
STERLING*      CLOUDY    18  10  73 E14       30.08F WCI   4
SAVANNA*       SNOW      19  14  80 SE16      30.09F VSB 1/2 WCI   4
$$

ILZ003-004-008-010-011-017-018-142000-
NORTH CENTRAL ILLINOIS

CITY           SKY/WX    TMP DP  RH WIND       PRES   REMARKS
ROCKFORD       SNOW      16  11  80 SE15G21   30.16F VSB 1/2 WCI   1
FREEPORT*      LGT SNOW  16  12  84 SE16      30.14F WCI   0
ROCHELLE*      LGT SNOW  17  12  84 SE20      30.13F WCI   0
DE KALB*       LGT SNOW  16  12  84 SE13G22   30.14F VSB 1   WCI   2
$$

ILZ005-006-012>014-019>023-142000-
NORTHEAST ILLINOIS

CITY           SKY/WX    TMP DP  RH WIND       PRES   REMARKS
CHICAGO-OHARE  HVY SNOW  16  12  84 SE14      30.18F VSB 1/4 WCI   2
CHICAGO-MIDWAY SNOW      17  10  74 SE13      30.20F VSB 1/2 WCI   4
AURORA         BLWGSNOW  17  12  80 E15       30.16F VSB 1/2 WCI   2
LANSING*       SNOW      16  12  84 SE10      30.21F VSB 1/2 WCI   4
WAUKEGAN       SNOW      16  11  80 SE12G20   30.20F VSB 1/2 WCI   3
DUPAGE AIRPORT LGT SNOW  16  10  77 E9        30.16F WCI   4
KANKAKEE*      LGT SNOW  18  14  83 E15       30.18F VSB 1   WCI   4
WHEELING       SNOW      15  12  88 SE8       30.21F VSB 1/2 WCI   4
MORRIS*        LGT SNOW  18  14  84 SE10      30.13F VSB 3/4 WCI   6
ROMEOVILLE*    SNOW      17  12  82 SE18      30.16F VSB 1/4 WCI   0
NORTHERLY ISL    N/A     16  10  77 SE12        N/A  WCI   3
$$

LMZ740>746-142000-
SOUTHERN LAKE MICHIGAN

STATION/POSITION SKY/WX   TEMP    WIND        PRES    VSBY  WAVE
                          AIR SEA DIR/SP/G                  HT/PER
                          (F)     (DEG/KT/KT) (MB)    (MI)  (FT/S)
HARRISON CRIB              18     160/ 17/ 21   N/A
BURNHAM HARBOR             17     130/  9/ 15   N/A
CALUMET HARBOR             17     150/ 11/ 17 1023.6F
BURNS HARBOR               17     140/ 12/ 20 1024.7F
MICHIGAN CITY              15     120/ 11/ 14   N/A
$$

ILZ025>027-034>036-040-047-049-050-058-095>099-142000-
WEST-CENTRAL ILLINOIS

CITY           SKY/WX    TMP DP  RH WIND       PRES   REMARKS
QUINCY         CLOUDY    22  17  81 SE15      29.97F WCI   9
GALESBURG*     LGT SNOW  19  15  87 SE12G18   30.03F WCI   6
MACOMB*        CLOUDY    20  17  88 SE15G22   30.05F WCI   6
JACKSONVILLE*  CLOUDY    23  19  83 SE12      30.04F WCI  12
PITTSFIELD*    CLOUDY    22  19  88 SE12      30.02F WCI  11
$$

ILZ028>032-037-038-041>044-048-051>054-059>061-142000-
CENTRAL ILLINOIS

CITY           SKY/WX    TMP DP  RH WIND       PRES   REMARKS
PONTIAC        LGT SNOW  20  17  88 SE18      30.15F WCI   4
BLOOMINGTON    CLOUDY    21  16  81 SE20G26   30.09F HAZE    WCI   6
DECATUR        SNOW      21  16  81 SE15G23   30.09F VSB 1/2 WCI   8
PEORIA         LGT SNOW  19  14  81 SE13      30.09F WCI   6
LACON*         LGT SNOW  19  14  80 SE15G22   30.11F WCI   5
LINCOLN*       LGT SNOW  21  18  85 SE16      30.09F WCI   7
SPRINGFIELD    LGT SNOW  22  18  85 SE17      30.07F FOG     WCI   8
TAYLORVILLE    LGT SNOW  21  18  86 SE14      30.07F WCI   8
$$

ILZ033-039-045-046-055>057-062-063-142000-
EAST-CENTRAL ILLINOIS

CITY           SKY/WX    TMP DP  RH WIND       PRES   REMARKS
CHAMPAIGN      SNOW      19  16  88 SE15      30.13F VSB 1/2 WCI   5
RANTOUL*       LGT SNOW  20  17  87 E13       30.14F VSB 3/4 WCI   8
MATTOON        SNOW      19  15  84 SE15      30.09F VSB 1/4 WCI   5
PARIS*         LGT SNOW  19  17  90 SE10G16   30.15F VSB 3/4 WCI   7
$$

ILZ079-100>102-142000-
SOUTHWEST ILLINOIS

CITY           SKY/WX    TMP DP  RH WIND       PRES   REMARKS
ALTON          LGT SNOW  23  19  86 SE16      30.08F WCI  10
BELLEVILLE     LGT SNOW  24  22  90 SE13      30.05F FOG     WCI  12
CAHOKIA*       CLOUDY    24  19  81 SE12      30.06F WCI  13
SPARTA*        MIX PCPN  23  20  89 SE7       30.07F WCI  14
$$

ILZ064>066-069>071-074>076-080>082-084>086-088>090-092>094-142000-
SOUTH-CENTRAL ILLINOIS

CITY           SKY/WX    TMP DP  RH WIND       PRES   REMARKS
CARBONDALE     LGT SNOW  25  19  80 SE9       30.08F WCI  15
CAIRO*         CLOUDY    27  27  98 E6        30.10F FOG     WCI  21
EFFINGHAM*     LGT SNOW  22  20  93 E15G23    30.11F VSB 3/4 WCI   8
MARION         LGT SNOW  27  23  86 SE12      30.09F WCI  16
MT. VERNON     CLOUDY    23  16  74 E8        30.10F WCI  14
CENTRALIA*     LGT SNOW  24  20  87 SE12      30.08F WCI  13
SALEM*         LGT SNOW  24  19  81 SE14      30.08F WCI  12
METROPOLIS*    MIX PCPN  27  26  95 E7        30.11F WCI  19
$$

ILZ067-068-072-073-078-083-087-091-142000-
SOUTHEAST ILLINOIS

CITY           SKY/WX    TMP DP  RH WIND       PRES   REMARKS
LAWRENCEVILLE  SNOW      21  18  88 E14       30.17F VSB 1/4 WCI   8
FLORA*         LGT SNOW  24  21  87 SE10      30.13F WCI  14
FAIRFIELD*     LGT SNOW  23  20  89 SE12      30.12F VSB 3/4 WCI  12
HARRISBURG*    CLOUDY    25  21  87 E10       30.11F WCI  14
ROBINSON*      SNOW      20  17  88 SE13      30.18F VSB 1/2 WCI   7
CARMI*         LGT SNOW  23  21  91 SE12      30.13F WCI  12
$$

ABBREVIATIONS USED IN REMARKS
   TC - TEMPERATURE IN CELSIUS
  WCI - WIND CHILL INDEX
   HX - HEAT INDEX
  VSB - VISIBILITY
$$





USA.gov is the U.S. government's official web portal to all federal, state and local government web resources and services.